Overview Statistics Trail Chart Weather Telemetry Raw packets
 

This is the latest recevied weather packets stored in our database for station/object K1TTC. If no packets are shown the sender has not sent any weather packets the latest 10 day(s).

<< 40 41 42 43 44 45 46 >>
Time Temp. Humidity Pressure Rain* Wind** Luminosity Snow
1788011370 21.11° C 50% 1024.7 hPa 0 mm - 643 W/m² -
1788010780 21.11° C 51% 1024.8 hPa 0 mm - 628 W/m² -
1788010171 20.56° C 52% 1024.8 hPa 0 mm - 633 W/m² -
1788009572 20.56° C 53% 1024.8 hPa 0 mm - 619 W/m² -
1788008971 19.44° C 55% 1024.6 hPa 0 mm - 594 W/m² -
1788008371 18.89° C 58% 1024.5 hPa 0 mm - 520 W/m² -
1788007769 18.33° C 60% 1024.5 hPa 0 mm - 483 W/m² -
1788007167 17.78° C 61% 1024.4 hPa 0 mm - 74 W/m² -
1788006568 17.22° C 61% 1024.3 hPa 0 mm - 149 W/m² -
1788005971 16.67° C 62% 1024.4 hPa 0 mm - 134 W/m² -
1788005370 16.67° C 62% 1024.3 hPa 0 mm - 62 W/m² -
1788004766 16.67° C 62% 1024.2 hPa 0 mm - 74 W/m² -
1788004166 16.67° C 61% 1024.1 hPa 0 mm - 51 W/m² -
1788003565 16.67° C 62% 1024 hPa 0 mm - 47 W/m² -
1788002964 16.11° C 62% 1024 hPa 0 mm - 32 W/m² -
1788002358 16.11° C 61% 1023.9 hPa 0 mm - 74 W/m² -
1788001760 16.11° C 61% 1023.8 hPa 0 mm - 53 W/m² -
1788001158 16.11° C 60% 1023.7 hPa 0 mm - 37 W/m² -
1788000558 16.11° C 59% 1023.6 hPa 0 mm - 25 W/m² -
1787999960 16.67° C 59% 1023.5 hPa 0 mm - 12 W/m² -
1787999358 16.67° C 58% 1023.4 hPa 0 mm - 11 W/m² -
1787998758 16.67° C 58% 1023.3 hPa 0 mm - 0 W/m² -
1787998160 16.67° C 57% 1023.2 hPa 0 mm - 0 W/m² -
1787997557 16.67° C 57% 1023.1 hPa 0 mm - 0 W/m² -
1787996958 16.67° C 57% 1023 hPa 0 mm - 0 W/m² -

* Rain latest hour (hover to see other rain measurements)
** Current wind speed in m/s (hover to see current wind gust speed)